Location: Newark
(25.0000°N, 73.5000°E)
Time: 22:28:20
(UTC+00:00)

Hubble Space Telescope - Visible Passes

Search period start: 05 December 2019 00:00
Search period end: 15 December 2019 00:00
Orbit: 536 x 540 km, 28.5° (Epoch: 05 December)

Date Brightness Start Highest point End Pass type
(mag) Time Alt. Az. Time Alt. Az. Time Alt. Az.
10 Dec 3.0 01:09:14 10° SSW 01:12:38 25° SSE 01:16:03 10° E visible
11 Dec 2.5 00:58:18 10° SW 01:02:00 32° SSE 01:05:42 10° E visible
12 Dec 2.0 00:47:28 10° SW 00:51:22 41° SSE 00:55:16 10° E visible
12 Dec 3.9 23:01:22 12° SE 23:01:22 12° SE 23:01:57 10° ESE visible
13 Dec 1.5 00:36:46 10° SW 00:40:44 52° SSE 00:44:46 10° E visible
14 Dec 1.0 00:27:29 21° WSW 00:30:08 66° SSE 00:34:14 10° E visible
